[[[{"header":{"parameterUnit":"kt","parameterCategory":2,"dx":1,"dy":1,"la1":30.253999710083008,"la2":30.299108505249023,"lo1":-89.0895004272461,"lo2":-89.04439544677734,"nx":28,"ny":28,"refTime":"2022-10-11T21:00:00:Z","depth":0,"parameterNumber":1,"parameterNumberName":"U-component_of_WINDS"},"data":[-5.2611,-5.2732,-5.2771,-5.2928,-5.2989,-5.3104,-5.3157,-5.3231,-5.3299,-5.3442,-5.3531,-5.3584,-5.3669,-5.3786,-5.3886,-5.3907,-5.3946,-5.3962,-5.3984,-5.3878,-5.3866,-5.3854,-5.3826,-5.397,-5.397,-5.4087,-5.4088,-5.4089,-5.2533,-5.2594,-5.2688,-5.2805,-5.2886,-5.2895,-5.2989,-5.3057,-5.316,-5.3245,-5.3335,-5.3464,-5.3572,-5.3653,-5.3763,-5.3823,-5.3833,-5.385,-5.3845,-5.3858,-5.3747,-5.3717,-5.384,-5.384,-5.384,-5.384,-5.384,-5.384,-5.24,-5.2471,-5.2563,-5.2666,-5.2736,-5.2814,-5.2889,-5.2951,-5.3044,-5.3162,-5.3191,-5.3308,-5.3402,-5.3554,-5.3615,-5.3708,-5.3697,-5.3727,-5.3735,-5.3741,-5.3743,-5.3568,-5.3729,-5.3729,-5.3729,-5.3729,-5.3729,0,-5.2314,-5.234,-5.2432,-5.2537,-5.2614,-5.2698,-5.2782,-5.283,-5.2901,-5.2975,-5.3086,-5.3157,-5.3298,-5.3407,-5.352,-5.3577,-5.3593,-5.3599,-5.362,-5.3606,-5.358,-5.3594,-5.341,-5.3593,-5.3592,-5.3591,-5.3591,-5.3591,-5.2181,-5.226,-5.2374,-5.2434,-5.2489,-5.2585,-5.265,-5.2706,-5.2773,-5.2886,-5.2947,-5.3058,-5.3148,-5.3322,-5.3393,-5.3499,-5.3507,-5.3573,-5.3523,-5.3508,-5.3507,-5.3501,-5.3509,-5.358,-5.3581,-5.3582,-5.3583,0,-5.2103,-5.2163,-5.2297,-5.2403,-5.2432,-5.2513,-5.2604,-5.2678,-5.2729,-5.2839,-5.2868,-5.2949,-5.3057,-5.3119,-5.3256,-5.3284,-5.342,-5.3427,-5.3389,-5.3392,-5.3456,-5.3449,-5.3656,-5.3686,-5.3539,-5.3541,-5.3542,0,-5.2012,-5.2114,-5.2198,-5.2273,-5.2388,-5.244,-5.2553,-5.2608,-5.2688,-5.2774,-5.2802,-5.2883,-5.2948,-5.3039,-5.3081,-5.3204,-5.323,-5.3258,-5.3268,-5.3255,-5.3251,-5.3289,-5.3281,-5.3288,-5.3287,-5.3286,-5.3285,0,-5.1881,-5.2045,-5.2167,-5.2214,-5.2336,-5.2393,-5.2447,-5.2536,-5.2599,-5.2692,-5.2734,-5.2838,-5.2895,-5.2976,-5.3029,-5.2993,-5.318,-5.3141,-5.3209,-5.3208,-5.3245,-5.3241,-5.3412,-5.3284,-5.3283,-5.3283,-5.3283,0,-5.1816,-5.1907,-5.2074,-5.2176,-5.2217,-5.2298,-5.2402,-5.2486,-5.2578,-5.2609,-5.2682,-5.2706,-5.2818,-5.2775,-5.293,-5.2868,-5.2923,-5.2961,-5.2967,-5.2978,-5.2927,-5.3013,-5.3171,-5.3188,-5.2993,-5.299,-5.2988,0,-5.165,-5.1834,-5.1879,-5.2037,-5.213,-5.2153,-5.2244,-5.2324,-5.2373,-5.246,-5.2515,-5.2614,-5.2594,-5.2634,-5.2703,-5.2763,-5.2844,-5.2754,-5.288,-5.2884,-5.2853,-5.2999,-5.3005,-5.313,-5.2958,-5.2961,-5.2963,0,-5.1527,-5.1672,-5.1697,-5.1752,-5.1865,-5.1943,-5.2048,-5.2156,-5.2212,-5.2299,-5.2388,-5.2529,-5.252,-5.2585,-5.2615,-5.2683,-5.2791,-5.2664,-5.2667,-5.2684,-5.2948,-5.2954,-5.2975,-5.2796,-5.28,-5.2803,-5.2939,0,-5.1413,-5.1512,-5.1583,-5.1702,-5.1772,-5.1874,-5.1935,-5.2001,-5.2022,-5.207,-5.2203,-5.2284,-5.2395,-5.2434,-5.2455,-5.2593,-5.2579,-5.2568,-5.2528,-5.2624,-5.267,-5.2689,-5.2454,-5.2453,-5.2453,-5.2452,0,0,-5.1237,-5.138,-5.1425,-5.1526,-5.1587,-5.1607,-5.1711,-5.1773,-5.1898,-5.194,-5.1919,-5.2129,-5.2195,-5.2349,-5.2384,-5.2429,-5.246,-5.2423,-5.2578,-5.2592,-5.2605,-5.2653,-5.2672,-5.2451,-5.2451,-5.245,-5.245,0,-5.1207,-5.1272,-5.1373,-5.144,-5.1538,-5.1584,-5.1608,-5.1709,-5.1745,-5.1874,-5.1888,-5.1975,-5.214,-5.2209,-5.2265,-5.2407,-5.2412,-5.2436,-5.2491,-5.2569,-5.2584,-5.2597,-5.2647,-5.2665,-5.2449,-5.2449,-5.2449,0,-5.1096,-5.117,-5.1225,-5.1363,-5.1428,-5.1523,-5.1497,-5.1598,-5.167,-5.1685,-5.1813,-5.1866,-5.1962,-5.21,-5.2164,-5.2146,-5.2365,-5.2306,-5.2312,-5.232,-5.2399,-5.2416,-5.2432,-5.2225,-5.2224,-5.2223,0,0,-5.1061,-5.1153,-5.1248,-5.1361,-5.1401,-5.1469,-5.1525,-5.1551,-5.1636,-5.167,-5.1737,-5.182,-5.1917,-5.1979,-5.2073,-5.2216,-5.224,-5.2276,-5.2287,-5.2295,-5.2307,-5.2388,-5.2405,-5.2219,-5.2219,-5.2219,0,0,-5.1045,-5.1159,-5.1164,-5.1302,-5.1382,-5.1483,-5.155,-5.1559,-5.1649,-5.1644,-5.1693,-5.1717,-5.1847,-5.1898,-5.1839,-5.206,-5.202,-5.2035,-5.2021,-5.2035,-5.2045,-5.2029,-5.1822,0,0,0,0,0,-5.1043,-5.1145,-5.1148,-5.118,-5.1355,-5.1481,-5.1504,-5.1546,-5.1516,-5.1569,-5.1627,-5.1628,-5.1876,-5.1825,-5.1856,-5.1921,-5.2169,-5.2178,-5.2186,-5.2202,-5.2216,-5.2228,0,0,0,0,0,0,-5.1056,-5.1095,-5.1146,-5.125,-5.129,-5.1478,-5.1437,-5.1452,-5.1512,-5.151,-5.1617,-5.1631,-5.167,-5.1812,-5.1839,-5.19,-5.1812,-5.2172,-5.218,-5.2187,-5.2207,-5.2218,-5.2228,0,0,0,0,0,-5.1067,-5.1098,-5.1367,-5.1249,-5.1284,-5.1364,-5.1434,-5.1445,-5.1493,-5.1581,-5.1596,-5.1519,-5.1671,-5.1697,-5.1828,-5.1886,-5.1794,-5.1804,-5.2177,-5.2183,-5.2189,-5.2213,0,0,0,0,0,0,-5.1074,-5.111,-5.1375,-5.1387,-5.1213,-5.1354,-5.1377,-5.144,-5.1561,-5.1576,-5.1485,-5.1482,-5.1672,-5.1693,-5.1713,-5.1879,-5.1778,-5.1788,-5.1795,-5.2182,-5.2187,-5.2191,0,0,0,0,0,0,-5.1093,-5.112,-5.1381,-5.1333,-5.134,-5.1345,-5.1366,-5.1483,-5.1562,-5.1458,-5.1459,-5.1482,-5.1642,-5.169,-5.1706,-5.1887,-5.1766,-5.1776,-5.1783,-5.1787,-5.2186,-5.2189,0,0,0,0,0,0,-5.1105,-5.1129,-5.133,-5.1336,-5.1342,-5.1481,-5.145,-5.1627,-5.152,-5.1452,-5.1512,-5.1508,-5.164,-5.1657,-5.1701,-5.1876,-5.1884,-5.1767,-5.1773,-5.1778,-5.1781,0,0,0,0,0,0,0,-5.1115,-5.0951,-5.1303,-5.1338,-5.1343,-5.1499,-5.1502,-5.1506,-5.1519,-5.1516,-5.1513,-5.1509,-5.1709,-5.172,-5.1731,-5.1866,0,0,-5.1766,-5.177,0,0,0,0,0,0,0,0,-5.0943,-5.0949,-5.1303,-5.1306,-5.1308,-5.15,-5.1502,-5.1505,-5.1519,-5.1516,-5.1513,-5.1511,-5.1712,-5.1721,-5.173,0,0,0,0,0,0,0,0,0,0,0,0,0,0,0,-5.1303,-5.1305,0,-5.15,-5.1502,-5.1504,-5.1518,-5.1516,-5.1514,-5.1512,-5.1715,-5.1722,-5.1729,0,0,0,0,0,0,0,0,0,0,0,0,0,0,0,0,0,0,0,0,0,0,0,0,0,0,0,0,0,0,0,0,0,0,0,0,0,0,0,0,0,0,0,0,0,0,0,0,0,0,0,0,0,0,0,0,0,0,0,0,0,0,0,0,0,0,0,0,0]}],[{"header":{"parameterUnit":"kt","parameterCategory":2,"dx":1,"dy":1,"la1":30.253999710083008,"la2":30.299108505249023,"lo1":-89.0895004272461,"lo2":-89.04439544677734,"nx":28,"ny":28,"refTime":"2022-10-11T21:00:00:Z","depth":0,"parameterNumber":2,"parameterNumberName":"V-component_of_WINDS"},"data":[5.9111,5.924,5.9277,5.944,5.9501,5.9619,5.9673,5.9747,5.9814,5.996,6.005,6.0099,6.018,6.0296,6.0396,6.0415,6.0456,6.0477,6.0497,6.0371,6.0356,6.0341,6.0314,6.0484,6.0485,6.0623,6.0624,6.0625,5.9023,5.9084,5.918,5.9298,5.9381,5.9384,5.9478,5.9548,5.9653,5.9736,5.9826,5.9956,6.0063,6.0138,6.0247,6.0309,6.0317,6.0337,6.0334,6.0347,6.0213,6.0184,6.0329,6.0329,6.0329,6.0329,6.0329,6.0329,5.8871,5.8946,5.9038,5.9143,5.9211,5.929,5.9367,5.9425,5.9519,5.9637,5.966,5.9779,5.9869,6.0016,6.0073,6.0168,6.0152,6.0184,6.0193,6.0202,6.0208,6.001,6.0187,6.0187,6.0186,6.0186,6.0186,0,5.8772,5.8797,5.889,5.8996,5.9073,5.9158,5.9241,5.9289,5.9352,5.9427,5.9538,5.9608,5.9746,5.9855,5.9963,6.0016,6.0026,6.0029,6.0053,6.0046,6.0027,6.0043,5.9826,6.0024,6.0023,6.0022,6.0021,6.0021,5.8625,5.8706,5.8817,5.8879,5.8932,5.9029,5.9094,5.9143,5.921,5.9319,5.9382,5.949,5.958,5.9751,5.9816,5.9918,5.9924,5.9997,5.9939,5.993,5.993,5.9926,5.9937,6.0007,6.0009,6.001,6.0012,0,5.854,5.8596,5.8732,5.8834,5.8862,5.8945,5.9032,5.9107,5.9154,5.9264,5.9293,5.9366,5.9473,5.9526,5.9658,5.9683,5.9824,5.9824,5.9795,5.9799,5.9872,5.9866,6.0093,6.0127,5.9947,5.9949,5.995,0,5.8437,5.8541,5.862,5.8695,5.8813,5.8859,5.8974,5.9025,5.9101,5.9188,5.9206,5.9288,5.9342,5.9432,5.9468,5.9591,5.9615,5.9642,5.9651,5.9642,5.964,5.9679,5.9672,5.9663,5.9661,5.966,5.9659,0,5.83,5.8461,5.8584,5.863,5.8747,5.8804,5.8855,5.8939,5.9001,5.909,5.9132,5.9231,5.9286,5.9363,5.9409,5.9368,5.9559,5.9513,5.9588,5.9587,5.9628,5.9625,5.9812,5.9658,5.9658,5.9657,5.9657,0,5.8226,5.8315,5.8483,5.8583,5.8623,5.8702,5.8805,5.8885,5.8972,5.9,5.9069,5.9088,5.9197,5.9148,5.9301,5.9236,5.9289,5.9324,5.9331,5.9345,5.929,5.9392,5.9561,5.9583,5.9358,5.9355,5.9353,0,5.8056,5.824,5.828,5.8438,5.853,5.8547,5.8636,5.8711,5.8756,5.8841,5.889,5.8985,5.8959,5.8996,5.9065,5.9119,5.9203,5.9108,5.9233,5.9237,5.9214,5.937,5.9383,5.9518,5.9322,5.9325,5.9327,0,5.7931,5.807,5.8095,5.815,5.8256,5.8332,5.8434,5.8538,5.8593,5.8673,5.8762,5.8894,5.8882,5.8942,5.8966,5.9034,5.9147,5.9011,5.9013,5.9036,5.9308,5.9322,5.9344,5.9149,5.9153,5.9156,5.9302,0,5.7814,5.7911,5.798,5.8095,5.8162,5.8261,5.8316,5.8379,5.8397,5.844,5.8568,5.8641,5.8745,5.8782,5.8798,5.8936,5.8921,5.8905,5.8862,5.8963,5.9013,5.9033,5.8784,5.8783,5.8782,5.8782,0,0,5.7639,5.7778,5.7816,5.7916,5.7975,5.7988,5.809,5.8148,5.8264,5.8305,5.8281,5.8479,5.8537,5.8687,5.8722,5.8763,5.8794,5.8755,5.8914,5.8928,5.8942,5.8994,5.9014,5.878,5.878,5.878,5.8779,0,5.7608,5.7668,5.7767,5.7829,5.7922,5.7963,5.7987,5.8081,5.8113,5.8236,5.8245,5.8327,5.848,5.8544,5.8596,5.8738,5.874,5.8765,5.8825,5.8903,5.8919,5.8933,5.8987,5.9006,5.8777,5.8777,5.8777,0,5.7497,5.7566,5.7618,5.7749,5.7809,5.7901,5.7871,5.7968,5.8037,5.8043,5.8166,5.8212,5.8299,5.8432,5.8492,5.8473,5.8689,5.8627,5.8634,5.8642,5.8721,5.8739,5.8756,5.8538,5.8537,5.8536,0,0,5.7462,5.7551,5.7638,5.7746,5.7784,5.7845,5.7898,5.792,5.7998,5.8029,5.8089,5.8165,5.8255,5.8313,5.84,5.8536,5.856,5.8596,5.8607,5.8616,5.8629,5.871,5.8728,5.8532,5.8532,5.8532,0,0,5.7445,5.7551,5.7555,5.7687,5.7761,5.7854,5.7918,5.7924,5.8008,5.8002,5.8042,5.8064,5.8188,5.8232,5.8174,5.8386,5.8342,5.8357,5.8352,5.8367,5.8379,5.8366,5.8151,0,0,0,0,0,5.7441,5.7539,5.754,5.757,5.7734,5.7853,5.7874,5.791,5.788,5.7931,5.7982,5.7979,5.821,5.816,5.8188,5.8253,5.8481,5.849,5.8499,5.8525,5.854,5.8553,0,0,0,0,0,0,5.7453,5.7489,5.7538,5.7634,5.7671,5.785,5.7807,5.7819,5.7876,5.7874,5.7969,5.7982,5.8014,5.8147,5.8173,5.8234,5.8143,5.8485,5.8492,5.8499,5.853,5.8542,5.8553,0,0,0,0,0,5.7462,5.7492,5.7744,5.7633,5.7665,5.7737,5.7803,5.7814,5.7858,5.7936,5.7948,5.788,5.8015,5.8039,5.8162,5.8221,5.8125,5.8135,5.849,5.8496,5.8501,5.8536,0,0,0,0,0,0,5.747,5.7502,5.7751,5.7762,5.7598,5.7728,5.7749,5.7808,5.7917,5.793,5.7848,5.7845,5.8017,5.8035,5.8053,5.8215,5.8111,5.8121,5.8127,5.8494,5.8499,5.8503,0,0,0,0,0,0,5.7487,5.7511,5.7757,5.7711,5.7717,5.7719,5.7738,5.7847,5.7918,5.7823,5.7824,5.7845,5.7989,5.8033,5.8047,5.8215,5.81,5.8109,5.8116,5.812,5.8498,5.8502,0,0,0,0,0,0,5.7498,5.7519,5.7708,5.7713,5.7718,5.7846,5.7816,5.798,5.7879,5.7818,5.7871,5.7867,5.7987,5.8002,5.8043,5.8205,5.8213,5.8101,5.8107,5.8111,5.8114,0,0,0,0,0,0,0,5.7507,5.7354,5.7685,5.7715,5.7719,5.7866,5.7869,5.7872,5.7878,5.7875,5.7872,5.7869,5.8048,5.8058,5.8068,5.8196,0,0,5.81,5.8104,0,0,0,0,0,0,0,0,5.7346,5.7352,5.7685,5.7688,5.769,5.7866,5.7869,5.7871,5.7878,5.7875,5.7873,5.787,5.8051,5.8059,5.8067,0,0,0,0,0,0,0,0,0,0,0,0,0,0,0,5.7686,5.7687,0,5.7866,5.7869,5.7871,5.7878,5.7875,5.7873,5.7871,5.8053,5.806,5.8066,0,0,0,0,0,0,0,0,0,0,0,0,0,0,0,0,0,0,0,0,0,0,0,0,0,0,0,0,0,0,0,0,0,0,0,0,0,0,0,0,0,0,0,0,0,0,0,0,0,0,0,0,0,0,0,0,0,0,0,0,0,0,0,0,0,0,0,0,0]}]]]